Location: Plainartige
(45.6866°N, 1.7993°E)
Time: 10:47:46
(UTC+00:00)

POLYITAN 1 - Pass Details

Date: 28 June 2022
Orbit: 586 x 605 km, 98.0° (Epoch: 15 August)

Event Time Altitude Azimuth Distance (km) Brightness Sun altitude
Rises 02:24:49 0° 5° (N) 2,854 ? -13.2°
Reaches altitude 10° 02:27:07 10° 356° (N) 1,950 ? -13.0°
Maximum altitude 02:30:58 35° 291° (WNW) 978 ? -12.6°
Enters shadow 02:33:39 17° 234° (SW) 1,529 ? -12.3°
